Weather History for Cullman, AL

Change the Weather History Date:

Tuesday, May 1, 2012

  Actual Average (KHSV) Record (KHSV)
Temperature  
Mean Temperature 74 °F 66 °F  
Max Temperature 88 °F 78 °F 91 °F (1959)
Min Temperature 59 °F 55 °F 34 °F (1908)
Degree Days  
Heating Degree Days 0 2  
Month to date heating degree days 2  
Since 1 July heating degree days 2976  
Cooling Degree Days 8 3  
Month to date cooling degree days 3  
Year to date cooling degree days 75  
Growing Degree Days 24 (Base 50)    
Moisture  
Dew Point 64 °F    
Average Humidity 75    
Maximum Humidity 100    
Minimum Humidity 38    
Precipitation  
Precipitation 0.00 in 0.18 in 4.15 in (2009)
Month to date precipitation 0.18  
Year to date precipitation 19.44  
Snow  
Snow 0.00 in - - ()
Month to date snowfall  
Since 1 July snowfall  
Snow Depth -    
Sea Level Pressure  
Sea Level Pressure 30.10 in    
Wind  
Wind Speed 0 mph (SSW)    
Max Wind Speed 9 mph    
Max Gust Speed -    
Visibility 10 miles    
Events      
T = Trace of Precipitation, MM = Missing Value Source: NWS Daily Summary

Daily Weather History Graph

Daily Weather History Graph

Search for Another Location

Airport:

Trip Planner

Search our weather history database for the weather conditions in past years. The results will help you decide how hot, cold, wet, or windy it might be!

Date:

Astronomy

May. 01, 2012 Rise Set
Actual Time 5:57 AM CDT 7:32 PM CDT
Civil Twilight 5:30 AM CDT 7:58 PM CDT
Nautical Twilight 4:58 AM CDT 8:31 PM CDT
Astronomical Twilight 4:24 AM CDT 9:05 PM CDT
Moon 2:47 PM CDT (5/1) 2:40 AM CDT (5/1)
Length of Visible Light 14h 28m
Length of Day
13h 34m
Waxing Gibbous, 74% of the Moon is Illuminated
May 1
Waxing Gibbous
May 5
Full
May 12
Last Quarter
May 20
New
May 28
First Quarter

Hourly Weather History & Observations

Time (CDT) Temp. Heat Index Dew Point Humidity Pressure Visibility Wind Dir Wind Speed Gust Speed Precip Events Conditions
12:15 AM 68.0 °F - 67.5 °F 98% 30.08 in 10.0 mi Calm Calm - N/A   Clear
12:35 AM 68.0 °F - 66.4 °F 95% 30.07 in 10.0 mi Calm Calm - N/A   Clear
1:15 AM 67.6 °F - 66.7 °F 97% 30.06 in 10.0 mi Calm Calm - N/A   Clear
1:35 AM 65.7 °F - 65.5 °F 99% 30.06 in 10.0 mi Calm Calm - N/A   Clear
1:55 AM 62.4 °F - 62.4 °F 100% 30.06 in 10.0 mi Calm Calm - N/A   Clear
2:35 AM 61.2 °F - 61.2 °F 100% 30.08 in 10.0 mi Calm Calm - N/A   Clear
3:35 AM 60.6 °F - 60.6 °F 100% 30.10 in 7.0 mi Calm Calm - N/A   Clear
3:55 AM 60.4 °F - 60.4 °F 100% 30.11 in 10.0 mi Calm Calm - N/A   Clear
4:15 AM 59.7 °F - 59.7 °F 100% 30.11 in 7.0 mi Calm Calm - N/A   Clear
4:35 AM 60.4 °F - 60.4 °F 100% 30.11 in 7.0 mi Calm Calm - N/A   Clear
4:55 AM 60.4 °F - 60.4 °F 100% 30.11 in 7.0 mi Calm Calm - N/A   Clear
5:15 AM 59.7 °F - 59.7 °F 100% 30.11 in 7.0 mi Calm Calm - N/A   Clear
5:35 AM 59.4 °F - 59.4 °F 100% 30.12 in 10.0 mi Calm Calm - N/A   Clear
5:55 AM 59.4 °F - 59.4 °F 100% 30.12 in 10.0 mi Calm Calm - N/A   Scattered Clouds
6:15 AM 60.6 °F - 60.6 °F 100% 30.13 in 10.0 mi Calm Calm - N/A   Mostly Cloudy
6:35 AM 62.8 °F - 62.8 °F 100% 30.13 in 10.0 mi Calm Calm - N/A   Mostly Cloudy
6:55 AM 66.0 °F - 66.0 °F 100% 30.14 in 10.0 mi Calm Calm - N/A   Mostly Cloudy
7:35 AM 68.0 °F - 68.0 °F 100% 30.14 in 10.0 mi Calm Calm - N/A   Scattered Clouds
7:55 AM 68.9 °F - 68.5 °F 99% 30.15 in 10.0 mi Calm Calm - N/A   Mostly Cloudy
8:15 AM 72.5 °F - 68.5 °F 87% 30.15 in 10.0 mi Calm Calm - N/A   Scattered Clouds
8:35 AM 74.7 °F - 69.1 °F 83% 30.15 in 10.0 mi Calm Calm - N/A   Scattered Clouds
9:15 AM 77.2 °F - 69.8 °F 78% 30.15 in 10.0 mi Calm Calm - N/A   Clear
9:35 AM 78.6 °F - 70.3 °F 76% 30.16 in 10.0 mi Calm Calm - N/A   Clear
9:55 AM 80.4 °F 82.7 °F 66.7 °F 63% 30.16 in 10.0 mi Calm Calm - N/A   Scattered Clouds
10:15 AM 81.1 °F 82.9 °F 64.9 °F 58% 30.16 in 10.0 mi Calm Calm - N/A   Clear
10:35 AM 82.2 °F 83.7 °F 64.2 °F 54% 30.16 in 10.0 mi Calm Calm - N/A   Clear
10:55 AM 83.5 °F 84.7 °F 63.9 °F 51% 30.16 in 10.0 mi Calm Calm - N/A   Clear
11:15 AM 84.7 °F 86.1 °F 64.0 °F 50% 30.15 in 10.0 mi Calm Calm - N/A   Clear
11:35 AM 86.2 °F 87.9 °F 64.8 °F 49% 30.15 in 10.0 mi SSW 3.5 mph - N/A   Scattered Clouds
11:55 AM 85.5 °F 86.6 °F 63.5 °F 48% 30.14 in 10.0 mi Calm Calm - N/A   Clear
12:15 PM 88.2 °F 89.9 °F 64.8 °F 46% 30.13 in 10.0 mi South 3.5 mph - N/A   Scattered Clouds
12:35 PM 88.2 °F 89.9 °F 64.8 °F 46% 30.13 in 10.0 mi Calm Calm - N/A   Clear
12:55 PM 88.2 °F 89.6 °F 64.2 °F 45% 30.12 in 10.0 mi SSW 5.8 mph - N/A   Clear
1:15 PM 87.6 °F 88.5 °F 63.3 °F 44% 30.11 in 10.0 mi Calm Calm - N/A   Clear
1:35 PM 86.7 °F 87.0 °F 61.9 °F 43% 30.11 in 10.0 mi SSW 4.6 mph - N/A   Scattered Clouds
1:55 PM 88.2 °F 88.1 °F 61.0 °F 40% 30.10 in 10.0 mi SSW 3.5 mph - N/A   Clear
2:15 PM 88.2 °F 87.8 °F 60.6 °F 39% 30.09 in 10.0 mi Calm Calm - N/A   Clear
2:35 PM 88.2 °F 87.6 °F 59.7 °F 38% 30.08 in 10.0 mi Calm Calm - N/A   Scattered Clouds
3:15 PM 88.2 °F 88.1 °F 60.8 °F 40% 30.08 in 10.0 mi Calm Calm - N/A   Scattered Clouds
3:35 PM 88.7 °F 88.3 °F 59.7 °F 38% 30.07 in 10.0 mi South 5.8 mph - N/A   Scattered Clouds
4:15 PM 88.2 °F 87.8 °F 60.4 °F 39% 30.06 in 10.0 mi Calm Calm - N/A   Clear
4:35 PM 86.7 °F 87.0 °F 61.7 °F 43% 30.06 in 10.0 mi Calm Calm - N/A   Clear
4:55 PM 87.8 °F 87.9 °F 61.5 °F 41% 30.06 in 10.0 mi Calm Calm - N/A   Clear
5:15 PM 88.2 °F 88.1 °F 60.8 °F 40% 30.05 in 10.0 mi South 4.6 mph - N/A   Clear
5:35 PM 88.2 °F 87.8 °F 60.4 °F 39% 30.05 in 10.0 mi South 3.5 mph - N/A   Scattered Clouds
6:15 PM 86.9 °F 87.2 °F 61.9 °F 43% 30.04 in 10.0 mi South 9.2 mph - N/A   Clear
6:35 PM 83.1 °F 83.3 °F 60.6 °F 46% 30.04 in 10.0 mi Calm Calm - N/A   Clear
6:55 PM 81.1 °F 82.0 °F 61.3 °F 51% 30.04 in 10.0 mi Calm Calm - N/A   Clear
7:15 PM 80.6 °F 81.7 °F 62.1 °F 53% 30.04 in 10.0 mi Calm Calm - N/A   Clear
7:35 PM 77.5 °F - 65.1 °F 65% 30.04 in 10.0 mi Calm Calm - N/A   Clear
7:55 PM 74.5 °F - 68.4 °F 81% 30.05 in 10.0 mi Calm Calm - N/A   Clear
8:15 PM 73.0 °F - 70.7 °F 92% 30.05 in 10.0 mi Calm Calm - N/A   Clear
8:35 PM 73.0 °F - 71.8 °F 96% 30.06 in 10.0 mi Calm Calm - N/A   Clear
8:55 PM 71.2 °F - 70.5 °F 98% 30.06 in 10.0 mi Calm Calm - N/A   Clear
9:15 PM 70.3 °F - 70.3 °F 100% 30.06 in 10.0 mi Calm Calm - N/A   Clear
9:35 PM 68.7 °F - 68.7 °F 100% 30.06 in 10.0 mi Calm Calm - N/A   Clear
9:55 PM 69.8 °F - 69.6 °F 99% 30.06 in 10.0 mi Calm Calm - N/A   Clear
10:15 PM 69.3 °F - 69.1 °F 99% 30.06 in 10.0 mi Calm Calm - N/A   Clear
10:35 PM 68.0 °F - 68.0 °F 100% 30.07 in 10.0 mi Calm Calm - N/A   Clear
10:55 PM 68.0 °F - 68.0 °F 100% 30.07 in 10.0 mi Calm Calm - N/A   Clear
11:15 PM 68.0 °F - 68.0 °F 100% 30.07 in 10.0 mi Calm Calm - N/A   Clear
11:35 PM 68.0 °F - 68.0 °F 100% 30.07 in 10.0 mi Calm Calm - N/A   Clear
11:55 PM 68.5 °F - 68.5 °F 100% 30.07 in 10.0 mi Calm Calm - N/A   Clear